TimeEST,TemperatureF,Dew PointF,Humidity,Sea Level PressureIn,VisibilityMPH,Wind Direction,Wind SpeedMPH,Gust SpeedMPH,PrecipitationIn,Events,Conditions,WindDirDegrees,DateUTC
12:54 AM,3.0,-8.0,60,29.66,10.0,West,10.4,-,N/A,,Clear,260,2013-01-21 05:54:00
1:54 AM,1.9,-8.0,63,29.69,10.0,WSW,11.5,-,N/A,,Overcast,250,2013-01-21 06:54:00
2:54 AM,1.9,-9.0,60,29.70,10.0,WSW,13.8,19.6,N/A,,Partly Cloudy,250,2013-01-21 07:54:00
3:54 AM,-0.0,-9.9,63,29.72,10.0,West,9.2,17.3,N/A,,Clear,260,2013-01-21 08:54:00
4:54 AM,-0.9,-11.0,62,29.74,10.0,WSW,10.4,21.9,N/A,,Clear,250,2013-01-21 09:54:00
5:54 AM,-2.0,-11.9,63,29.75,10.0,West,13.8,-,N/A,,Clear,260,2013-01-21 10:54:00
6:54 AM,-2.9,-13.0,62,29.78,10.0,WSW,12.7,20.7,N/A,,Clear,250,2013-01-21 11:54:00
7:54 AM,-2.9,-13.0,62,29.83,10.0,WSW,10.4,-,N/A,,Clear,250,2013-01-21 12:54:00
8:54 AM,-2.0,-13.0,60,29.87,10.0,WSW,10.4,19.6,N/A,,Clear,250,2013-01-21 13:54:00
9:54 AM,-0.0,-13.0,54,29.91,10.0,WSW,16.1,21.9,N/A,,Clear,240,2013-01-21 14:54:00
10:54 AM,1.9,-11.9,52,29.90,10.0,West,10.4,-,N/A,,Clear,260,2013-01-21 15:54:00
11:54 AM,3.9,-11.0,50,29.88,10.0,WSW,13.8,20.7,N/A,,Clear,240,2013-01-21 16:54:00
12:54 PM,6.1,-9.9,48,29.88,10.0,WSW,12.7,-,N/A,,Clear,240,2013-01-21 17:54:00
1:54 PM,7.0,-9.9,46,29.89,10.0,WSW,13.8,18.4,N/A,,Clear,250,2013-01-21 18:54:00
2:54 PM,7.0,-9.9,46,29.90,10.0,West,10.4,24.2,N/A,,Clear,260,2013-01-21 19:54:00
3:54 PM,6.1,-9.9,48,29.92,10.0,WSW,9.2,-,N/A,,Clear,250,2013-01-21 20:54:00
4:54 PM,3.9,-9.9,53,29.92,10.0,WSW,10.4,-,N/A,,Clear,240,2013-01-21 21:54:00
6:54 PM,-0.0,-11.0,60,29.95,10.0,WSW,3.5,-,N/A,,Clear,250,2013-01-21 23:54:00
7:54 PM,-0.9,-11.0,62,29.96,10.0,WSW,4.6,-,N/A,,Clear,250,2013-01-22 00:54:00
8:54 PM,-2.0,-11.9,63,29.97,10.0,West,4.6,-,N/A,,Clear,260,2013-01-22 01:54:00
9:54 PM,-2.9,-13.0,62,29.98,10.0,Calm,Calm,-,N/A,,Clear,0,2013-01-22 02:54:00
10:54 PM,-4.0,-13.0,65,29.96,10.0,Calm,Calm,-,N/A,,Clear,0,2013-01-22 03:54:00
11:54 PM,-6.0,-14.1,68,29.96,10.0,Calm,Calm,-,N/A,,Clear,0,2013-01-22 04:54:00